Погода в Похвальщине

Россия / Псковская область     57°42′51″N   28°27′30″E
темп.,
°C
ветер,
м/с
пор.,
м/с
влажн.,
%
обл.,
%
осадки,
мм/ч
давл.,
гПа
погр.,
м
6 мая, чт
чт600:00+5ю2696100 0.1 999114
03:00+6ю2797100 0.3 997203
06:00+6ю1199100 3.3 99647
09:00+7зсз1293100 7.0 995241
12:00+8юз4685100 0.5 995792
15:00+10юз5977100 1.6 9951204
18:00+6юз61287100 0.9 9971255
21:00+5юз61288100 1.1 9981165
7 мая, пт
пт700:00+4ююз61288100 0.1 999957
03:00+4юз61384100 0.1 10001049
06:00+4юз51288100 0.0 1001956
09:00+5юз51080100 0.0 1002929
12:00+7юз587193 0.1 10041161
15:00+10юз475999 0.4 10041530
18:00+10юз4768100 0.8 10041305
21:00+6юз1184100 1.1 100410
8 мая, сб
сб800:00+5в2288100 0.0 100324
03:00+5вюв1194100 0.3 100225
06:00+5сз2597100 0.9 1001200
09:00+5ссз4795100 1.6 1002666
12:00+6сз5990100 0.7 1002815
15:00+7сз697495 1.0 10041188
18:00+7сз61164100 0.1 10051373
21:00+5сз5126986 0.1 10071032
9 мая, вс
вс900:00+4зсз514705 0.0 1009669
03:00+2зсз513755 0.0 1012537
06:00+2з412820 0.0 1014430
09:00+7зсз48582 0.0 1016793
12:00+12зюз4638100 0.0 10171764
15:00+13юз5836100 0.0 10182206
18:00+13юз4748100 0.0 10182184
21:00+9ююз3106762 0.1 1019328
10 мая, пн
пн1000:00+7ююз31273100 0.0 1020360
03:00+7ююв51589100 1.6 1019633
06:00+7ю5138553 0.2 1020477
09:00+12ююз5116927 0.2 1021548
12:00+18ююз61050100 0.0 10211091
15:00+20ююз610465 0.0 10211423
18:00+19ю5105522 0.0 10201383
21:00+15ю51368100 0.0 1021679